| time (UTC) | temp C | wind direction | speed KPH | gust KPH | rain 1hr cm | rain 24hr cm | rain mn cm | humidity % | barometer mb |
| 20260505070031 | 12 | 359 | 1.6 | 12.9 | 0.05 | 0.20 | 0.20 | 71 | 1008.6 |
| 20260505064620 | 12 | 75 | 6.4 | 12.9 | 0.05 | 0.20 | 0.20 | 71 | 1007.2 |
| 20260505063049 | 12 | 55 | 6.4 | 27.4 | 0.05 | 0.18 | 0.18 | 71 | 1006.3 |
| 20260505061502 | 13 | 26 | 9.7 | 20.9 | 0.15 | 0.15 | 0.15 | 73 | 1006.1 |
| 20260505060046 | 14 | 11 | 0.0 | 19.3 | 0.15 | 0.15 | 0.15 | 81 | 1005.8 |
| 20260505054511 | 15 | 11 | 3.2 | 8.0 | 0.15 | 0.15 | 0.15 | 81 | 1004.4 |
| 20260505053058 | 16 | 11 | 4.8 | 9.7 | 0.13 | 0.13 | 0.13 | 76 | 1004.4 |
| 20260505051508 | 17 | 11 | 6.4 | 16.1 | 0.00 | 0.00 | 0.00 | 67 | 1004.5 |
| 20260505041608 | 21 | 35 | 1.6 | 9.7 | 0.00 | 0.00 | 0.00 | 73 | 1003.1 |
| 20260505040012 | 21 | 11 | 4.8 | 16.1 | 0.00 | 0.00 | 0.00 | 72 | 1003.0 |
| 20260505034603 | 21 | 11 | 1.6 | 12.9 | 0.00 | 0.00 | 0.00 | 71 | 1002.7 |
| 20260505033014 | 21 | 11 | 3.2 | 16.1 | 0.00 | 0.00 | 0.00 | 71 | 1002.7 |
| 20260505031608 | 21 | 11 | 3.2 | 14.5 | 0.00 | 0.00 | 0.00 | 69 | 1002.6 |
| 20260505030028 | 21 | 182 | 1.6 | 6.4 | 0.00 | 0.00 | 0.00 | 67 | 1002.5 |
| 20260505024619 | 22 | 11 | 1.6 | 8.0 | 0.00 | 0.00 | 0.00 | 66 | 1002.3 |
| 20260505023024 | 22 | 11 | 0.0 | 8.0 | 0.00 | 0.00 | 0.00 | 64 | 1002.0 |
| 20260505021623 | 22 | 11 | 1.6 | 8.0 | 0.00 | 0.00 | 0.00 | 63 | 1001.8 |
| 20260505020050 | 22 | 11 | 1.6 | 8.0 | 0.00 | 0.00 | 0.00 | 61 | 1001.7 |
| 20260505014628 | 22 | 203 | 1.6 | 4.8 | 0.00 | 0.00 | 0.00 | 60 | 1001.6 |
| 20260505013041 | 23 | 11 | 0.0 | 4.8 | 0.00 | 0.00 | 0.00 | 59 | 1001.3 |
| 20260505011628 | 23 | 11 | 0.0 | 6.4 | 0.00 | 0.00 | 0.00 | 57 | 1001.1 |
| 20260505004626 | 25 | 215 | 0.0 | 1.6 | 0.00 | 0.00 | 0.00 | 55 | 1000.8 |
| 20260505003046 | 25 | 215 | 0.0 | 3.2 | 0.00 | 0.00 | 0.00 | 55 | 1000.6 |
| 20260505001629 | 26 | 215 | 0.0 | 4.8 | 0.00 | 0.00 | 0.00 | 55 | 1000.6 |
| 20260505000051 | 26 | 215 | 0.0 | 4.8 | 0.00 | 0.00 | 0.00 | 52 | 1000.6 |
| 20260504234633 | 26 | 226 | 0.0 | 4.8 | 0.00 | 0.00 | 0.00 | 50 | 1000.7 |
| 20260504233053 | 26 | 214 | 1.6 | 11.3 | 0.00 | 0.00 | 0.00 | 49 | 1000.7 |
| 20260504231630 | 26 | 11 | 3.2 | 14.5 | 0.00 | 0.00 | 0.00 | 50 | 1000.7 |
| 20260504230100 | 27 | 11 | 0.0 | 12.9 | 0.00 | 0.00 | 0.00 | 49 | 1000.7 |
| 20260504224508 | 27 | 11 | 4.8 | 14.5 | 0.00 | 0.00 | 0.00 | 50 | 1000.6 |
| 20260504223037 | 27 | 240 | 4.8 | 17.7 | 0.00 | 0.00 | 0.00 | 47 | 1000.6 |
| 20260504221631 | 26 | 252 | 6.4 | 17.7 | 0.00 | 0.00 | 0.00 | 49 | 1000.7 |
| 20260504220035 | 26 | 11 | 4.8 | 16.1 | 0.00 | 0.00 | 0.00 | 50 | 1000.9 |
| 20260504214624 | 26 | 11 | 6.4 | 20.9 | 0.00 | 0.00 | 0.00 | 52 | 1001.0 |
| 20260504213045 | 26 | 11 | 3.2 | 20.9 | 0.00 | 0.00 | 0.00 | 52 | 1001.2 |
| 20260504211623 | 27 | 11 | 9.7 | 24.1 | 0.00 | 0.00 | 0.00 | 52 | 1001.2 |
| 20260504210055 | 27 | 11 | 3.2 | 24.1 | 0.00 | 0.00 | 0.00 | 50 | 1001.2 |
| 20260504204632 | 28 | 192 | 6.4 | 12.9 | 0.00 | 0.00 | 0.00 | 47 | 1001.3 |
| 20260504203046 | 28 | 11 | 3.2 | 19.3 | 0.00 | 0.00 | 0.00 | 45 | 1001.6 |
| 20260504201631 | 28 | 11 | 6.4 | 27.4 | 0.00 | 0.00 | 0.00 | 47 | 1001.5 |
| 20260504200057 | 28 | 11 | 4.8 | 22.5 | 0.00 | 0.00 | 0.00 | 45 | 1001.5 |
| 20260504194631 | 28 | 11 | 8.0 | 29.0 | 0.00 | 0.00 | 0.00 | 45 | 1001.7 |
| 20260504193053 | 28 | 11 | 8.0 | 30.6 | 0.00 | 0.00 | 0.00 | 44 | 1001.7 |
| 20260504191501 | 28 | 230 | 9.7 | 20.9 | 0.00 | 0.00 | 0.00 | 47 | 1001.7 |
| 20260504190055 | 28 | 221 | 9.7 | 25.7 | 0.00 | 0.00 | 0.00 | 49 | 1001.8 |
| 20260504184526 | 28 | 11 | 9.7 | 25.7 | 0.00 | 0.00 | 0.00 | 47 | 1002.0 |
| 20260504183110 | 27 | 11 | 6.4 | 19.3 | 0.00 | 0.00 | 0.00 | 52 | 1002.0 |
| 20260504181511 | 27 | 11 | 6.4 | 20.9 | 0.00 | 0.00 | 0.00 | 48 | 1002.2 |
| 20260504180103 | 27 | 245 | 6.4 | 24.1 | 0.00 | 0.00 | 0.00 | 50 | 1002.3 |
| 20260504174515 | 26 | 228 | 6.4 | 25.7 | 0.00 | 0.00 | 0.00 | 51 | 1002.6 |
| 20260504173109 | 26 | 11 | 8.0 | 20.9 | 0.00 | 0.00 | 0.00 | 52 | 1002.6 |
| 20260504171523 | 26 | 210 | 9.7 | 22.5 | 0.00 | 0.00 | 0.00 | 50 | 1002.7 |
| 20260504170106 | 26 | 11 | 6.4 | 20.9 | 0.00 | 0.00 | 0.00 | 51 | 1002.9 |
| 20260504160111 | 23 | 11 | 8.0 | 24.1 | 0.00 | 0.00 | 0.00 | 55 | 1002.8 |
| 20260504150120 | 21 | 11 | 11.3 | 40.2 | 0.00 | 0.00 | 0.00 | 57 | 1003.0 |
| 20260504140130 | 18 | 11 | 4.8 | 22.5 | 0.00 | 0.00 | 0.00 | 64 | 1003.3 |
| 20260504081519 | 17 | 209 | 6.4 | 20.9 | 0.00 | 0.00 | 0.00 | 59 | 1004.4 |